This is the latest recevied weather packets stored in our database for station/object YF9UAG-16. If no packets are shown the sender has not sent any weather packets the latest 10 day(s).
| Time | Temp. | Humidity | Pressure | Rain* | Wind** | Luminosity | Snow |
|---|---|---|---|---|---|---|---|
| 1777882943 | 27.78° C | 81% | 1008 hPa | - | - | 0 W/m² | - |
| 1777882621 | 28.33° C | 82% | 1008 hPa | - | - | 0 W/m² | - |
| 1777882299 | 28.33° C | 85% | 1008 hPa | - | - | 0 W/m² | - |
| 1777881978 | 28.33° C | 84% | 1008 hPa | - | - | 0 W/m² | - |
| 1777881655 | 28.33° C | 83% | 1008 hPa | - | - | 0 W/m² | - |
| 1777881333 | 27.78° C | 82% | 1008 hPa | - | - | 0 W/m² | - |
| 1777881011 | 27.78° C | 80% | 1008 hPa | - | - | 0 W/m² | - |
| 1777880689 | 27.78° C | 78% | 1008 hPa | - | - | 0 W/m² | - |
| 1777880367 | 28.33° C | 81% | 1008 hPa | - | - | 0 W/m² | - |
| 1777880045 | 28.33° C | 78% | 1008 hPa | - | - | 0 W/m² | - |
| 1777879723 | 27.22° C | 74% | 1008 hPa | - | - | 0 W/m² | - |
| 1777879401 | 28.33° C | 78% | 1008 hPa | - | - | 0 W/m² | - |
| 1777879079 | 28.33° C | 75% | 1008 hPa | - | - | 0 W/m² | - |
| 1777878757 | 27.78° C | 71% | 1008 hPa | - | - | 0 W/m² | - |
| 1777878435 | 27.78° C | 69% | 1008 hPa | - | - | 0 W/m² | - |
| 1777878113 | 27.78° C | 71% | 1008 hPa | - | - | 0 W/m² | - |
| 1777877791 | 28.33° C | 74% | 1008 hPa | - | - | 0 W/m² | - |
| 1777877469 | 28.33° C | 70% | 1008 hPa | - | - | 0 W/m² | - |
| 1777877147 | 29.44° C | 67% | 1008 hPa | - | - | 0 W/m² | - |
| 1777876825 | 28.89° C | 65% | 1008 hPa | - | - | 0 W/m² | - |
| 1777876503 | 29.44° C | 62% | 1008 hPa | - | - | 0 W/m² | - |
| 1777876181 | 28.89° C | 63% | 1008 hPa | - | - | 0 W/m² | - |
| 1777875859 | 29.44° C | 60% | 1008 hPa | - | - | 0 W/m² | - |
| 1777875537 | 30.56° C | 59% | 1007 hPa | - | - | 0 W/m² | - |
| 1777875215 | 30.56° C | 56% | 1007 hPa | - | - | 0 W/m² | - |
* Rain since midnight (hover to see other rain measurements)
** Current wind speed in m/s (hover to see current wind gust speed)